Location: Gebel Barqa
(23.8333°N, 32.8333°E)
Time: 08:17:17
(UTC+00:00)

Cosmos 2263 Rocket - Pass Details

Date: 08 August 2025
Orbit: 822 x 848 km, 71.0° (Epoch: 15 December)

Event Time Altitude Azimuth Distance (km) Brightness Sun altitude
Rises 18:27:22 0° 344° (NNW) 3,358 6.0 -25.7°
Reaches altitude 10° 18:29:48 10° 346° (NNW) 2,421 5.2 -26.2°
Enters shadow 18:35:04 73° 45° (NE) 860 2.1 -27.2°
